Time,TemperatureF,DewpointF,PressureIn,WindDirection,WindDirectionDegrees,WindSpeedMPH,WindSpeedGustMPH,Humidity,HourlyPrecipIn,Conditions,Clouds,dailyrainin,SoftwareType,DateUTC
2013-12-16 00:01:00,17.6,13.0,30.16,NW,317,2.0,5.0,81,0.00,,,0.00,weatherlink.com 1.10,2013-12-16 05:01:00,
2013-12-16 00:17:00,17.2,12.0,30.16,NNE,14,0.0,5.0,79,0.00,,,0.00,weatherlink.com 1.10,2013-12-16 05:17:00,
2013-12-16 00:32:00,16.5,11.0,30.17,NNE,13,0.0,4.0,80,0.00,,,0.00,weatherlink.com 1.10,2013-12-16 05:32:00,
2013-12-16 00:48:00,16.0,11.0,30.17,NNE,13,1.0,3.0,80,0.00,,,0.00,weatherlink.com 1.10,2013-12-16 05:48:00,
2013-12-16 01:02:00,15.9,11.0,30.17,NNE,13,2.0,3.0,81,0.00,,,0.00,weatherlink.com 1.10,2013-12-16 06:02:00,
2013-12-16 01:17:00,15.9,11.0,30.17,North,5,2.0,5.0,81,0.00,,,0.00,weatherlink.com 1.10,2013-12-16 06:17:00,
2013-12-16 01:33:00,15.8,11.0,30.17,North,355,2.0,4.0,82,0.00,,,0.00,weatherlink.com 1.10,2013-12-16 06:33:00,
2013-12-16 01:48:00,15.6,11.0,30.17,NW,318,4.0,6.0,83,0.00,,,0.00,weatherlink.com 1.10,2013-12-16 06:48:00,
2013-12-16 02:04:00,15.5,12.0,30.17,NNW,327,1.0,6.0,84,0.00,,,0.00,weatherlink.com 1.10,2013-12-16 07:04:00,
2013-12-16 02:19:00,15.3,11.0,30.17,NNW,329,5.0,6.0,84,0.00,,,0.00,weatherlink.com 1.10,2013-12-16 07:19:00,
2013-12-16 02:34:00,15.3,12.0,30.18,NNW,329,1.0,4.0,85,0.00,,,0.00,weatherlink.com 1.10,2013-12-16 07:34:00,
2013-12-16 02:49:00,15.2,12.0,30.18,NNW,329,3.0,3.0,85,0.00,,,0.00,weatherlink.com 1.10,2013-12-16 07:49:00,
2013-12-16 03:04:00,15.2,12.0,30.18,NNW,329,3.0,4.0,86,0.00,,,0.00,weatherlink.com 1.10,2013-12-16 08:04:00,
2013-12-16 03:19:00,15.0,12.0,30.18,NW,326,2.0,5.0,86,0.00,,,0.00,weatherlink.com 1.10,2013-12-16 08:19:00,
2013-12-16 03:35:00,14.9,12.0,30.18,NW,326,1.0,3.0,86,0.00,,,0.00,weatherlink.com 1.10,2013-12-16 08:35:00,
2013-12-16 03:51:00,14.8,12.0,30.18,NW,326,1.0,4.0,87,0.00,,,0.00,weatherlink.com 1.10,2013-12-16 08:51:00,
2013-12-16 04:07:00,14.8,12.0,30.18,NW,326,0.0,3.0,87,0.00,,,0.00,weatherlink.com 1.10,2013-12-16 09:07:00,
2013-12-16 04:22:00,14.8,12.0,30.17,NW,326,0.0,1.0,88,0.00,,,0.00,weatherlink.com 1.10,2013-12-16 09:22:00,
2013-12-16 04:37:00,14.6,12.0,30.17,NW,326,0.0,3.0,88,0.00,,,0.00,weatherlink.com 1.10,2013-12-16 09:37:00,
2013-12-16 04:52:00,14.5,12.0,30.17,NW,326,0.0,1.0,88,0.00,,,0.00,weatherlink.com 1.10,2013-12-16 09:52:00,
2013-12-16 05:06:00,14.5,12.0,30.17,NW,326,0.0,0.0,88,0.00,,,0.00,weatherlink.com 1.10,2013-12-16 10:06:00,
2013-12-16 05:23:00,14.6,12.0,30.17,NW,326,0.0,0.0,89,0.00,,,0.00,weatherlink.com 1.10,2013-12-16 10:23:00,
2013-12-16 05:37:00,14.6,12.0,30.17,NW,326,0.0,0.0,88,0.00,,,0.00,weatherlink.com 1.10,2013-12-16 10:37:00,
2013-12-16 05:52:00,14.5,12.0,30.17,NW,326,0.0,0.0,88,0.00,,,0.00,weatherlink.com 1.10,2013-12-16 10:52:00,
2013-12-16 06:08:00,14.5,12.0,30.18,NW,326,0.0,0.0,89,0.00,,,0.00,weatherlink.com 1.10,2013-12-16 11:08:00,
2013-12-16 06:23:00,14.6,12.0,30.18,NW,326,0.0,0.0,89,0.00,,,0.00,weatherlink.com 1.10,2013-12-16 11:23:00,
2013-12-16 06:38:00,14.6,12.0,30.18,NW,326,0.0,0.0,89,0.00,,,0.00,weatherlink.com 1.10,2013-12-16 11:38:00,
2013-12-16 06:53:00,14.6,12.0,30.19,NW,326,0.0,0.0,89,0.00,,,0.00,weatherlink.com 1.10,2013-12-16 11:53:00,
2013-12-16 07:09:00,14.6,12.0,30.19,NW,326,0.0,0.0,89,0.00,,,0.00,weatherlink.com 1.10,2013-12-16 12:09:00,
2013-12-16 07:24:00,14.5,12.0,30.18,NW,326,0.0,0.0,89,0.00,,,0.00,weatherlink.com 1.10,2013-12-16 12:24:00,
2013-12-16 07:40:00,14.6,12.0,30.19,NW,326,0.0,0.0,89,0.00,,,0.00,weatherlink.com 1.10,2013-12-16 12:40:00,
2013-12-16 07:54:00,14.6,12.0,30.18,NW,326,0.0,2.0,89,0.00,,,0.00,weatherlink.com 1.10,2013-12-16 12:54:00,
2013-12-16 08:09:00,14.7,12.0,30.18,NW,326,0.0,0.0,89,0.00,,,0.00,weatherlink.com 1.10,2013-12-16 13:09:00,
2013-12-16 08:27:00,14.9,12.0,30.18,NW,326,0.0,0.0,89,0.00,,,0.00,weatherlink.com 1.10,2013-12-16 13:27:00,
2013-12-16 08:41:00,15.1,13.0,30.18,NW,326,2.0,3.0,89,0.00,,,0.00,weatherlink.com 1.10,2013-12-16 13:41:00,
2013-12-16 08:56:00,15.4,13.0,30.19,ESE,112,1.0,3.0,89,0.00,,,0.00,weatherlink.com 1.10,2013-12-16 13:56:00,
2013-12-16 09:12:00,15.9,13.0,30.19,ESE,103,3.0,4.0,89,0.00,,,0.00,weatherlink.com 1.10,2013-12-16 14:12:00,
2013-12-16 09:26:00,16.2,13.0,30.19,ESE,121,3.0,5.0,88,0.00,,,0.00,weatherlink.com 1.10,2013-12-16 14:26:00,
2013-12-16 09:42:00,16.5,14.0,30.20,SE,125,2.0,4.0,88,0.00,,,0.00,weatherlink.com 1.10,2013-12-16 14:42:00,
2013-12-16 09:57:00,17.0,14.0,30.19,ESE,116,2.0,5.0,88,0.00,,,0.00,weatherlink.com 1.10,2013-12-16 14:57:00,
2013-12-16 10:12:00,17.4,14.0,30.19,ESE,120,3.0,8.0,87,0.00,,,0.00,weatherlink.com 1.10,2013-12-16 15:12:00,
2013-12-16 10:28:00,17.9,15.0,30.20,ENE,72,7.0,7.0,87,0.00,,,0.00,weatherlink.com 1.10,2013-12-16 15:28:00,
2013-12-16 10:43:00,18.6,15.0,30.20,SE,125,2.0,7.0,85,0.00,,,0.00,weatherlink.com 1.10,2013-12-16 15:43:00,
2013-12-16 10:58:00,19.0,15.0,30.20,East,88,3.0,6.0,85,0.00,,,0.00,weatherlink.com 1.10,2013-12-16 15:58:00,
2013-12-16 11:13:00,19.5,15.0,30.20,ENE,73,7.0,9.0,84,0.00,,,0.00,weatherlink.com 1.10,2013-12-16 16:13:00,
2013-12-16 11:28:00,19.7,16.0,30.19,East,84,8.0,10.0,84,0.00,,,0.00,weatherlink.com 1.10,2013-12-16 16:28:00,
2013-12-16 11:43:00,19.9,16.0,30.18,ESE,109,5.0,9.0,84,0.00,,,0.00,weatherlink.com 1.10,2013-12-16 16:43:00,
2013-12-16 11:59:00,19.5,15.0,30.17,ESE,104,5.0,10.0,83,0.00,,,0.00,weatherlink.com 1.10,2013-12-16 16:59:00,
2013-12-16 12:14:00,20.0,16.0,30.16,ESE,109,4.0,9.0,83,0.00,,,0.00,weatherlink.com 1.10,2013-12-16 17:14:00,
2013-12-16 12:31:00,20.0,16.0,30.16,ESE,119,5.0,9.0,83,0.00,,,0.00,weatherlink.com 1.10,2013-12-16 17:31:00,
2013-12-16 12:45:00,20.0,15.0,30.14,SE,131,4.0,10.0,82,0.00,,,0.00,weatherlink.com 1.10,2013-12-16 17:45:00,
2013-12-16 13:01:00,20.6,16.0,30.15,ENE,75,7.0,8.0,83,0.00,,,0.00,weatherlink.com 1.10,2013-12-16 18:01:00,
2013-12-16 13:17:00,21.2,17.0,30.14,ENE,77,7.0,10.0,82,0.00,,,0.00,weatherlink.com 1.10,2013-12-16 18:17:00,
2013-12-16 13:32:00,21.3,17.0,30.13,ENE,78,10.0,10.0,82,0.00,,,0.00,weatherlink.com 1.10,2013-12-16 18:32:00,
2013-12-16 13:46:00,21.2,17.0,30.14,ENE,78,8.0,9.0,82,0.00,,,0.00,weatherlink.com 1.10,2013-12-16 18:46:00,
2013-12-16 14:02:00,20.9,16.0,30.13,East,101,7.0,10.0,81,0.00,,,0.00,weatherlink.com 1.10,2013-12-16 19:02:00,
2013-12-16 14:17:00,21.0,16.0,30.13,East,88,5.0,10.0,82,0.00,,,0.00,weatherlink.com 1.10,2013-12-16 19:17:00,
2013-12-16 14:31:00,21.3,17.0,30.12,East,85,7.0,9.0,82,0.00,,,0.00,weatherlink.com 1.10,2013-12-16 19:31:00,
2013-12-16 14:46:00,21.1,16.0,30.12,ENE,77,8.0,10.0,81,0.00,,,0.00,weatherlink.com 1.10,2013-12-16 19:46:00,
2013-12-16 15:02:00,20.9,16.0,30.11,East,95,11.0,11.0,82,0.00,,,0.00,weatherlink.com 1.10,2013-12-16 20:02:00,
2013-12-16 15:18:00,20.6,16.0,30.10,East,101,5.0,10.0,83,0.00,,,0.00,weatherlink.com 1.10,2013-12-16 20:18:00,
2013-12-16 15:33:00,20.6,16.0,30.10,SE,137,4.0,12.0,82,0.00,,,0.00,weatherlink.com 1.10,2013-12-16 20:33:00,
2013-12-16 15:48:00,20.6,16.0,30.10,ESE,107,2.0,9.0,83,0.00,,,0.00,weatherlink.com 1.10,2013-12-16 20:48:00,
2013-12-16 16:03:00,20.6,16.0,30.10,ESE,113,7.0,12.0,83,0.00,,,0.00,weatherlink.com 1.10,2013-12-16 21:03:00,
2013-12-16 16:20:00,20.5,16.0,30.10,East,101,8.0,9.0,84,0.00,,,0.00,weatherlink.com 1.10,2013-12-16 21:20:00,
2013-12-16 16:35:00,20.5,17.0,30.10,SE,134,5.0,10.0,86,0.00,,,0.00,weatherlink.com 1.10,2013-12-16 21:35:00,
2013-12-16 16:48:00,20.5,17.0,30.10,SE,125,1.0,10.0,87,0.00,,,0.00,weatherlink.com 1.10,2013-12-16 21:48:00,
2013-12-16 17:04:00,20.6,18.0,30.10,SE,127,4.0,5.0,88,0.00,,,0.00,weatherlink.com 1.10,2013-12-16 22:04:00,
2013-12-16 17:21:00,20.7,18.0,30.10,SE,125,2.0,7.0,89,0.00,,,0.00,weatherlink.com 1.10,2013-12-16 22:21:00,
2013-12-16 17:35:00,20.8,18.0,30.09,ESE,119,1.0,8.0,89,0.00,,,0.00,weatherlink.com 1.10,2013-12-16 22:35:00,
2013-12-16 17:50:00,20.8,18.0,30.09,SE,132,3.0,7.0,90,0.00,,,0.00,weatherlink.com 1.10,2013-12-16 22:50:00,
2013-12-16 18:05:00,20.8,19.0,30.10,SE,134,3.0,5.0,91,0.00,,,0.00,weatherlink.com 1.10,2013-12-16 23:05:00,
2013-12-16 18:21:00,20.9,19.0,30.09,SSE,155,2.0,6.0,91,0.00,,,0.00,weatherlink.com 1.10,2013-12-16 23:21:00,
2013-12-16 18:36:00,21.0,19.0,30.08,SE,144,3.0,5.0,91,0.00,,,0.00,weatherlink.com 1.10,2013-12-16 23:36:00,
2013-12-16 18:51:00,21.1,19.0,30.09,SE,144,2.0,5.0,91,0.00,,,0.00,weatherlink.com 1.10,2013-12-16 23:51:00,
2013-12-16 19:06:00,21.3,19.0,30.08,SE,143,2.0,4.0,92,0.00,,,0.00,weatherlink.com 1.10,2013-12-17 00:06:00,
2013-12-16 19:21:00,21.5,20.0,30.08,SE,143,2.0,4.0,92,0.00,,,0.00,weatherlink.com 1.10,2013-12-17 00:21:00,
2013-12-16 19:36:00,21.7,20.0,30.08,SE,143,0.0,4.0,92,0.00,,,0.00,weatherlink.com 1.10,2013-12-17 00:36:00,
2013-12-16 19:52:00,21.9,20.0,30.07,SE,143,2.0,4.0,92,0.00,,,0.00,weatherlink.com 1.10,2013-12-17 00:52:00,
2013-12-16 20:07:00,22.0,20.0,30.06,SE,143,0.0,2.0,92,0.00,,,0.00,weatherlink.com 1.10,2013-12-17 01:07:00,
2013-12-16 20:22:00,22.2,20.0,30.07,SE,143,0.0,1.0,92,0.00,,,0.00,weatherlink.com 1.10,2013-12-17 01:22:00,
2013-12-16 20:39:00,22.3,20.0,30.06,SE,143,0.0,2.0,92,0.00,,,0.00,weatherlink.com 1.10,2013-12-17 01:39:00,
2013-12-16 20:52:00,22.4,21.0,30.06,SE,143,0.0,0.0,93,0.00,,,0.00,weatherlink.com 1.10,2013-12-17 01:52:00,
2013-12-16 21:09:00,22.5,21.0,30.06,SE,143,0.0,0.0,93,0.00,,,0.00,weatherlink.com 1.10,2013-12-17 02:09:00,
2013-12-16 21:23:00,22.6,21.0,30.07,SE,143,0.0,0.0,93,0.00,,,0.00,weatherlink.com 1.10,2013-12-17 02:23:00,
2013-12-16 21:38:00,22.7,21.0,30.07,SE,143,0.0,0.0,93,0.00,,,0.00,weatherlink.com 1.10,2013-12-17 02:38:00,
2013-12-16 21:54:00,22.9,22.0,30.06,SE,143,0.0,0.0,94,0.00,,,0.00,weatherlink.com 1.10,2013-12-17 02:54:00,
2013-12-16 22:11:00,22.8,21.0,30.06,SE,143,0.0,0.0,94,0.00,,,0.00,weatherlink.com 1.10,2013-12-17 03:11:00,
2013-12-16 22:24:00,22.8,21.0,30.06,SE,143,0.0,0.0,94,0.00,,,0.00,weatherlink.com 1.10,2013-12-17 03:24:00,
2013-12-16 22:40:00,22.8,21.0,30.07,SE,143,0.0,0.0,94,0.00,,,0.00,weatherlink.com 1.10,2013-12-17 03:40:00,
2013-12-16 22:54:00,22.8,21.0,30.07,SE,143,0.0,2.0,94,0.00,,,0.00,weatherlink.com 1.10,2013-12-17 03:54:00,
2013-12-16 23:09:00,22.7,21.0,30.06,SE,143,0.0,0.0,94,0.00,,,0.00,weatherlink.com 1.10,2013-12-17 04:09:00,
2013-12-16 23:25:00,22.7,21.0,30.06,SE,143,1.0,3.0,94,0.00,,,0.00,weatherlink.com 1.10,2013-12-17 04:25:00,
2013-12-16 23:41:00,22.7,21.0,30.05,SE,143,0.0,0.0,94,0.00,,,0.00,weatherlink.com 1.10,2013-12-17 04:41:00,
2013-12-16 23:57:00,22.7,21.0,30.05,SE,143,1.0,3.0,94,0.00,,,0.00,weatherlink.com 1.10,2013-12-17 04:57:00,